Year,Month,Day,Hour,Minute,Value (Times are PST for windspeed in km/hr)
2006,02,02,00,00,0.20
2006,02,02,00,01,0.80
2006,02,02,00,02,0.60
2006,02,02,00,03,1.20
2006,02,02,00,04,0.30
2006,02,02,00,05,2.50
2006,02,02,00,06,2.60
2006,02,02,00,07,3.30
2006,02,02,00,08,1.30
2006,02,02,00,09,0.00
2006,02,02,00,10,0.20
2006,02,02,00,11,3.90
2006,02,02,00,12,4.10
2006,02,02,00,13,5.00
2006,02,02,00,14,5.30
2006,02,02,00,15,4.00
2006,02,02,00,16,1.50
2006,02,02,00,17,2.70
2006,02,02,00,18,5.60
2006,02,02,00,19,0.60
2006,02,02,00,20,1.60
2006,02,02,00,21,3.80
2006,02,02,00,22,2.70
2006,02,02,00,23,1.60
2006,02,02,00,24,1.70
2006,02,02,00,25,2.10
2006,02,02,00,26,0.20
2006,02,02,00,27,0.00
2006,02,02,00,28,0.00
2006,02,02,00,29,0.00
2006,02,02,00,30,0.00
2006,02,02,00,31,0.90
2006,02,02,00,32,1.10
2006,02,02,00,33,0.60
2006,02,02,00,34,2.30
2006,02,02,00,35,1.70
2006,02,02,00,36,2.60
2006,02,02,00,37,6.80
2006,02,02,00,38,13.00
2006,02,02,00,39,17.00
2006,02,02,00,40,13.40
2006,02,02,00,41,6.20
2006,02,02,00,42,6.80
2006,02,02,00,43,9.60
2006,02,02,00,44,9.10
2006,02,02,00,45,8.00
2006,02,02,00,46,6.30
2006,02,02,00,47,5.40
2006,02,02,00,48,5.30
2006,02,02,00,49,3.40
2006,02,02,00,50,5.10
2006,02,02,00,51,8.00
2006,02,02,00,52,7.00
2006,02,02,00,53,4.10
2006,02,02,00,54,5.60
2006,02,02,00,55,7.80
2006,02,02,00,56,2.60
2006,02,02,00,57,3.10
2006,02,02,00,58,8.60
2006,02,02,00,59,5.10
2006,02,02,01,00,1.50
2006,02,02,01,01,1.90
2006,02,02,01,02,7.00
2006,02,02,01,03,7.10
2006,02,02,01,04,5.50
2006,02,02,01,05,5.00
2006,02,02,01,06,4.80
2006,02,02,01,07,4.30
2006,02,02,01,08,4.70
2006,02,02,01,09,3.00
2006,02,02,01,10,4.10
2006,02,02,01,11,1.90
2006,02,02,01,12,2.20
2006,02,02,01,13,4.10
2006,02,02,01,14,4.60
2006,02,02,01,15,5.00
2006,02,02,01,16,7.10
2006,02,02,01,17,6.00
2006,02,02,01,18,3.60
2006,02,02,01,19,4.30
2006,02,02,01,20,3.60
2006,02,02,01,21,2.30
2006,02,02,01,22,2.90
2006,02,02,01,23,1.20
2006,02,02,01,24,1.40
2006,02,02,01,25,1.30
2006,02,02,01,26,2.80
2006,02,02,01,27,3.10
2006,02,02,01,28,1.90
2006,02,02,01,29,1.60
2006,02,02,01,30,3.00
2006,02,02,01,31,0.30
2006,02,02,01,32,0.00
2006,02,02,01,33,0.10
2006,02,02,01,34,1.30
2006,02,02,01,35,1.60
2006,02,02,01,36,0.10
2006,02,02,01,37,1.50
2006,02,02,01,38,0.90
2006,02,02,01,39,0.10
2006,02,02,01,40,0.90
2006,02,02,01,41,1.10
2006,02,02,01,42,1.80
2006,02,02,01,43,2.00
2006,02,02,01,44,1.10
2006,02,02,01,45,1.40
2006,02,02,01,46,1.90
2006,02,02,01,47,1.50
2006,02,02,01,48,1.90
2006,02,02,01,49,1.90
2006,02,02,01,50,1.90
2006,02,02,01,51,2.00
2006,02,02,01,52,1.60
2006,02,02,01,53,2.70
2006,02,02,01,54,3.90
2006,02,02,01,55,2.80
2006,02,02,01,56,3.60
2006,02,02,01,57,2.80
2006,02,02,01,58,3.00
2006,02,02,01,59,3.20
2006,02,02,02,00,4.40
2006,02,02,02,01,5.40
2006,02,02,02,02,6.40
2006,02,02,02,03,6.40
2006,02,02,02,04,3.50
2006,02,02,02,05,5.30
2006,02,02,02,06,4.70
2006,02,02,02,07,3.10
2006,02,02,02,08,5.60
2006,02,02,02,09,5.00
2006,02,02,02,10,5.30
2006,02,02,02,11,4.40
2006,02,02,02,12,3.90
2006,02,02,02,13,5.20
2006,02,02,02,14,9.20
2006,02,02,02,15,4.70
2006,02,02,02,16,7.10
2006,02,02,02,17,6.50
2006,02,02,02,18,7.20
2006,02,02,02,19,9.70
2006,02,02,02,20,7.40
2006,02,02,02,21,10.10
2006,02,02,02,22,8.90
2006,02,02,02,23,4.70
2006,02,02,02,24,6.30
2006,02,02,02,25,8.20
2006,02,02,02,26,8.50
2006,02,02,02,27,7.20
2006,02,02,02,28,9.90
2006,02,02,02,29,6.20
2006,02,02,02,30,6.20
2006,02,02,02,31,9.00
2006,02,02,02,32,10.20
2006,02,02,02,33,10.20
2006,02,02,02,34,8.30
2006,02,02,02,35,10.60
2006,02,02,02,36,8.10
2006,02,02,02,37,8.60
2006,02,02,02,38,10.90
2006,02,02,02,39,7.60
2006,02,02,02,40,7.60
2006,02,02,02,41,8.70
2006,02,02,02,42,5.70
2006,02,02,02,43,8.20
2006,02,02,02,44,13.60
2006,02,02,02,45,10.80
2006,02,02,02,46,7.90
2006,02,02,02,47,10.20
2006,02,02,02,48,13.00
2006,02,02,02,49,10.00
2006,02,02,02,50,10.50
2006,02,02,02,51,6.50
2006,02,02,02,52,6.40
2006,02,02,02,53,13.00
2006,02,02,02,54,9.00
2006,02,02,02,55,7.60
2006,02,02,02,56,10.60
2006,02,02,02,57,10.10
2006,02,02,02,58,8.50
2006,02,02,02,59,10.70
2006,02,02,03,00,7.30
2006,02,02,03,01,13.40
2006,02,02,03,02,14.10
2006,02,02,03,03,13.10
2006,02,02,03,04,17.30
2006,02,02,03,05,11.80
2006,02,02,03,06,11.70
2006,02,02,03,07,9.70
2006,02,02,03,08,9.40
2006,02,02,03,09,8.60
2006,02,02,03,10,11.90
2006,02,02,03,11,15.10
2006,02,02,03,12,16.30
2006,02,02,03,13,19.90
2006,02,02,03,14,21.10
2006,02,02,03,15,11.10
2006,02,02,03,16,10.00
2006,02,02,03,17,12.20
2006,02,02,03,18,15.40
2006,02,02,03,19,10.30
2006,02,02,03,20,12.70
2006,02,02,03,21,11.00
2006,02,02,03,22,14.30
2006,02,02,03,23,11.20
2006,02,02,03,24,12.40
2006,02,02,03,25,8.60
2006,02,02,03,26,5.50
2006,02,02,03,27,8.10
2006,02,02,03,28,8.50
2006,02,02,03,29,7.20
2006,02,02,03,30,10.10
2006,02,02,03,31,6.80
2006,02,02,03,32,7.60
2006,02,02,03,33,8.00
2006,02,02,03,34,6.60
2006,02,02,03,35,3.30
2006,02,02,03,36,5.90
2006,02,02,03,37,4.70
2006,02,02,03,38,5.70
2006,02,02,03,39,1.70
2006,02,02,03,40,3.50
2006,02,02,03,41,2.90
2006,02,02,03,42,3.00
2006,02,02,03,43,4.10
2006,02,02,03,44,4.60
2006,02,02,03,45,1.80
2006,02,02,03,46,1.80
2006,02,02,03,47,5.60
2006,02,02,03,48,6.00
2006,02,02,03,49,5.80
2006,02,02,03,50,6.00
2006,02,02,03,51,4.70
2006,02,02,03,52,2.80
2006,02,02,03,53,3.10
2006,02,02,03,54,7.00
2006,02,02,03,55,11.70
2006,02,02,03,56,5.30
2006,02,02,03,57,2.40
2006,02,02,03,58,3.70
2006,02,02,03,59,6.10
2006,02,02,04,00,5.90
2006,02,02,04,01,2.60
2006,02,02,04,02,3.20
2006,02,02,04,03,3.50
2006,02,02,04,04,4.70
2006,02,02,04,05,4.40
2006,02,02,04,06,5.10
2006,02,02,04,07,4.80
2006,02,02,04,08,6.40
2006,02,02,04,09,4.50
2006,02,02,04,10,6.80
2006,02,02,04,11,4.90
2006,02,02,04,12,3.70
2006,02,02,04,13,4.50
2006,02,02,04,14,11.00
2006,02,02,04,15,13.00
2006,02,02,04,16,9.50
2006,02,02,04,17,9.80
2006,02,02,04,18,5.20
2006,02,02,04,19,7.80
2006,02,02,04,20,4.70
2006,02,02,04,21,7.80
2006,02,02,04,22,10.30
2006,02,02,04,23,12.20
2006,02,02,04,24,4.60
2006,02,02,04,25,7.10
2006,02,02,04,26,8.80
2006,02,02,04,27,6.90
2006,02,02,04,28,9.30
2006,02,02,04,29,6.40
2006,02,02,04,30,5.00
2006,02,02,04,31,11.20
2006,02,02,04,32,9.10
2006,02,02,04,33,11.70
2006,02,02,04,34,11.20
2006,02,02,04,35,9.30
2006,02,02,04,36,10.20
2006,02,02,04,37,8.40
2006,02,02,04,38,11.60
2006,02,02,04,39,13.50
2006,02,02,04,40,10.60
2006,02,02,04,41,10.10
2006,02,02,04,42,7.50
2006,02,02,04,43,9.30
2006,02,02,04,44,5.80
2006,02,02,04,45,8.50
2006,02,02,04,46,7.40
2006,02,02,04,47,6.70
2006,02,02,04,48,6.00
2006,02,02,04,49,6.60
2006,02,02,04,50,8.40
2006,02,02,04,51,12.50
2006,02,02,04,52,17.20
2006,02,02,04,53,7.40
2006,02,02,04,54,5.80
2006,02,02,04,55,3.70
2006,02,02,04,56,8.00
2006,02,02,04,57,8.80
2006,02,02,04,58,6.60
2006,02,02,04,59,5.40
2006,02,02,05,00,7.00
2006,02,02,05,01,4.60
2006,02,02,05,02,11.40
2006,02,02,05,03,11.60
2006,02,02,05,04,10.10
2006,02,02,05,05,4.60
2006,02,02,05,06,8.90
2006,02,02,05,07,7.90
2006,02,02,05,08,5.40
2006,02,02,05,09,3.10
2006,02,02,05,10,5.40
2006,02,02,05,11,6.40
2006,02,02,05,12,7.70
2006,02,02,05,13,3.60
2006,02,02,05,14,8.70
2006,02,02,05,15,4.10
2006,02,02,05,16,6.30
2006,02,02,05,17,8.20
2006,02,02,05,18,9.80
2006,02,02,05,19,7.20
2006,02,02,05,20,4.50
2006,02,02,05,21,5.20
2006,02,02,05,22,6.80
2006,02,02,05,23,8.80
2006,02,02,05,24,8.20
2006,02,02,05,25,9.00
2006,02,02,05,26,7.20
2006,02,02,05,27,6.80
2006,02,02,05,28,7.80
2006,02,02,05,29,6.10
2006,02,02,05,30,5.80
2006,02,02,05,31,8.20
2006,02,02,05,32,5.70
2006,02,02,05,33,7.40
2006,02,02,05,34,7.00
2006,02,02,05,35,9.10
2006,02,02,05,36,8.00
2006,02,02,05,37,7.90
2006,02,02,05,38,8.60
2006,02,02,05,39,7.60
2006,02,02,05,40,9.30
2006,02,02,05,41,6.80
2006,02,02,05,42,7.20
2006,02,02,05,43,5.30
2006,02,02,05,44,4.90
2006,02,02,05,45,4.80
2006,02,02,05,46,6.70
2006,02,02,05,47,4.10
2006,02,02,05,48,7.50
2006,02,02,05,49,8.50
2006,02,02,05,50,7.40
2006,02,02,05,51,3.40
2006,02,02,05,52,5.40
2006,02,02,05,53,4.00
2006,02,02,05,54,2.60
2006,02,02,05,55,2.90
2006,02,02,05,56,3.00
2006,02,02,05,57,2.30
2006,02,02,05,58,2.00
2006,02,02,05,59,3.80
2006,02,02,06,00,4.00
2006,02,02,06,01,2.50
2006,02,02,06,02,2.00
2006,02,02,06,03,1.10
2006,02,02,06,04,0.80
2006,02,02,06,05,1.40
2006,02,02,06,06,3.20
2006,02,02,06,07,3.10
2006,02,02,06,08,3.20
2006,02,02,06,09,4.00
2006,02,02,06,10,5.10
2006,02,02,06,11,4.30
2006,02,02,06,12,4.50
2006,02,02,06,13,5.30
2006,02,02,06,14,5.20
2006,02,02,06,15,4.00
2006,02,02,06,16,3.10
2006,02,02,06,17,4.00
2006,02,02,06,18,4.20
2006,02,02,06,19,5.10
2006,02,02,06,20,3.90
2006,02,02,06,21,4.00
2006,02,02,06,22,3.40
2006,02,02,06,23,4.30
2006,02,02,06,24,5.30
2006,02,02,06,25,3.90
2006,02,02,06,26,3.40
2006,02,02,06,27,5.90
2006,02,02,06,28,2.70
2006,02,02,06,29,5.00
2006,02,02,06,30,5.90
2006,02,02,06,31,4.40
2006,02,02,06,32,4.20
2006,02,02,06,33,4.90
2006,02,02,06,34,6.40
2006,02,02,06,35,8.20
2006,02,02,06,36,9.30
2006,02,02,06,37,9.00
2006,02,02,06,38,7.70
2006,02,02,06,39,11.70
2006,02,02,06,40,10.40
2006,02,02,06,41,10.90
2006,02,02,06,42,9.70
2006,02,02,06,43,7.80
2006,02,02,06,44,5.10
2006,02,02,06,45,5.50
2006,02,02,06,46,5.70
2006,02,02,06,47,4.90
2006,02,02,06,48,6.20
2006,02,02,06,49,9.90
2006,02,02,06,50,8.60
2006,02,02,06,51,6.40
2006,02,02,06,52,7.70
2006,02,02,06,53,6.40
2006,02,02,06,54,4.90
2006,02,02,06,55,4.20
2006,02,02,06,56,7.40
2006,02,02,06,57,6.80
2006,02,02,06,58,7.50
2006,02,02,06,59,7.20
2006,02,02,07,00,6.70
2006,02,02,07,01,6.40
2006,02,02,07,02,6.10
2006,02,02,07,03,5.30
2006,02,02,07,04,3.80
2006,02,02,07,05,2.70
2006,02,02,07,06,1.90
2006,02,02,07,07,2.10
2006,02,02,07,08,3.20
2006,02,02,07,09,2.70
2006,02,02,07,10,3.20
2006,02,02,07,11,4.40
2006,02,02,07,12,5.50
2006,02,02,07,13,5.40
2006,02,02,07,14,4.30
2006,02,02,07,15,1.50
2006,02,02,07,16,0.50
2006,02,02,07,17,0.90
2006,02,02,07,18,0.10
2006,02,02,07,19,2.20
2006,02,02,07,20,3.40
2006,02,02,07,21,1.80
2006,02,02,07,22,1.60
2006,02,02,07,23,0.20
2006,02,02,07,24,0.00
2006,02,02,07,25,0.00
2006,02,02,07,26,0.10
2006,02,02,07,27,0.00
2006,02,02,07,28,0.50
2006,02,02,07,29,0.00
2006,02,02,07,30,0.00
2006,02,02,07,31,0.00
2006,02,02,07,32,0.00
2006,02,02,07,33,0.00
2006,02,02,07,34,0.80
2006,02,02,07,35,0.90
2006,02,02,07,36,1.00
2006,02,02,07,37,1.60
2006,02,02,07,38,1.90
2006,02,02,07,39,2.70
2006,02,02,07,40,2.20
2006,02,02,07,41,3.30
2006,02,02,07,42,3.40
2006,02,02,07,43,3.50
2006,02,02,07,44,1.70
2006,02,02,07,45,2.00
2006,02,02,07,46,2.00
2006,02,02,07,47,0.10
2006,02,02,07,48,0.00
2006,02,02,07,49,0.60
2006,02,02,07,50,1.90
2006,02,02,07,51,2.70
2006,02,02,07,52,3.00
2006,02,02,07,53,4.30
2006,02,02,07,54,3.40
2006,02,02,07,55,2.60
2006,02,02,07,56,2.40
2006,02,02,07,57,4.30
2006,02,02,07,58,4.90
2006,02,02,07,59,5.40
2006,02,02,08,00,2.60
2006,02,02,08,01,1.10
2006,02,02,08,02,0.10
2006,02,02,08,03,0.00
2006,02,02,08,04,0.00
2006,02,02,08,05,2.50
2006,02,02,08,06,2.10
2006,02,02,08,07,1.00
2006,02,02,08,08,1.50
2006,02,02,08,09,2.30
2006,02,02,08,10,2.10
2006,02,02,08,11,2.00
2006,02,02,08,12,2.90
2006,02,02,08,13,2.60
2006,02,02,08,14,3.40
2006,02,02,08,15,4.10
2006,02,02,08,16,3.00
2006,02,02,08,17,2.50
2006,02,02,08,18,1.40
2006,02,02,08,19,1.80
2006,02,02,08,20,6.00
2006,02,02,08,21,5.80
2006,02,02,08,22,3.30
2006,02,02,08,23,4.80
2006,02,02,08,24,5.30
2006,02,02,08,25,2.90
2006,02,02,08,26,5.10
2006,02,02,08,27,2.80
2006,02,02,08,28,1.20
2006,02,02,08,29,2.00
2006,02,02,08,30,2.90
2006,02,02,08,31,3.70
2006,02,02,08,32,3.00
2006,02,02,08,33,2.40
2006,02,02,08,34,3.50
2006,02,02,08,35,4.60
2006,02,02,08,36,3.40
2006,02,02,08,37,2.50
2006,02,02,08,38,5.60
2006,02,02,08,39,5.00
2006,02,02,08,40,3.40
2006,02,02,08,41,4.70
2006,02,02,08,42,4.40
2006,02,02,08,43,4.10
2006,02,02,08,44,1.60
2006,02,02,08,45,3.40
2006,02,02,08,46,5.60
2006,02,02,08,47,2.90
2006,02,02,08,48,4.00
2006,02,02,08,49,5.30
2006,02,02,08,50,3.00
2006,02,02,08,51,3.10
2006,02,02,08,52,2.50
2006,02,02,08,53,2.70
2006,02,02,08,54,3.20
2006,02,02,08,55,3.40
2006,02,02,08,56,2.20
2006,02,02,08,57,2.20
2006,02,02,08,58,2.00
2006,02,02,08,59,2.10
2006,02,02,09,00,0.10
2006,02,02,09,01,0.00
2006,02,02,09,02,0.00
2006,02,02,09,03,0.10
2006,02,02,09,04,0.60
2006,02,02,09,05,0.90
2006,02,02,09,06,2.50
2006,02,02,09,07,3.00
2006,02,02,09,08,3.20
2006,02,02,09,09,3.30
2006,02,02,09,10,4.30
2006,02,02,09,11,2.80
2006,02,02,09,12,2.50
2006,02,02,09,13,3.50
2006,02,02,09,14,4.70
2006,02,02,09,15,4.30
2006,02,02,09,16,3.10
2006,02,02,09,17,2.90
2006,02,02,09,18,0.70
2006,02,02,09,19,2.70
2006,02,02,09,20,4.30
2006,02,02,09,21,3.70
2006,02,02,09,22,2.50
2006,02,02,09,23,2.70
2006,02,02,09,24,5.50
2006,02,02,09,25,5.30
2006,02,02,09,26,3.60
2006,02,02,09,27,3.80
2006,02,02,09,28,2.80
2006,02,02,09,29,2.30
2006,02,02,09,30,4.20
2006,02,02,09,31,5.60
2006,02,02,09,32,3.10
2006,02,02,09,33,1.60
2006,02,02,09,34,4.60
2006,02,02,09,35,2.70
2006,02,02,09,36,4.70
2006,02,02,09,37,4.60
2006,02,02,09,38,4.50
2006,02,02,09,39,4.10
2006,02,02,09,40,5.40
2006,02,02,09,41,4.70
2006,02,02,09,42,3.20
2006,02,02,09,43,3.90
2006,02,02,09,44,5.90
2006,02,02,09,45,5.40
2006,02,02,09,46,4.20
2006,02,02,09,47,9.00
2006,02,02,09,48,10.90
2006,02,02,09,49,8.20
2006,02,02,09,50,5.60
2006,02,02,09,51,3.80
2006,02,02,09,52,6.70
2006,02,02,09,53,7.90
2006,02,02,09,54,4.70
2006,02,02,09,55,2.90
2006,02,02,09,56,1.90
2006,02,02,09,57,2.60
2006,02,02,09,58,3.60
2006,02,02,09,59,6.00
2006,02,02,10,00,4.90
2006,02,02,10,01,3.70
2006,02,02,10,02,6.40
2006,02,02,10,03,12.90
2006,02,02,10,04,15.50
2006,02,02,10,05,12.70
2006,02,02,10,06,11.70
2006,02,02,10,07,10.20
2006,02,02,10,08,8.70
2006,02,02,10,09,8.50
2006,02,02,10,10,12.50
2006,02,02,10,11,9.70
2006,02,02,10,12,6.80
2006,02,02,10,13,8.40
2006,02,02,10,14,8.10
2006,02,02,10,15,10.80
2006,02,02,10,16,13.40
2006,02,02,10,17,12.80
2006,02,02,10,18,8.90
2006,02,02,10,19,8.70
2006,02,02,10,20,13.00
2006,02,02,10,21,11.20
2006,02,02,10,22,10.50
2006,02,02,10,23,13.80
2006,02,02,10,24,12.90
2006,02,02,10,25,14.10
2006,02,02,10,26,10.80
2006,02,02,10,27,10.70
2006,02,02,10,28,11.10
2006,02,02,10,29,14.00
2006,02,02,10,30,16.40
2006,02,02,10,31,13.40
2006,02,02,10,32,10.20
2006,02,02,10,33,11.00
2006,02,02,10,34,7.90
2006,02,02,10,35,8.40
2006,02,02,10,36,8.10
2006,02,02,10,37,9.30
2006,02,02,10,38,9.70
2006,02,02,10,39,11.50
2006,02,02,10,40,11.90
2006,02,02,10,41,10.10
2006,02,02,10,42,12.30
2006,02,02,10,43,11.20
2006,02,02,10,44,9.10
2006,02,02,10,45,10.20
2006,02,02,10,46,11.50
2006,02,02,10,47,8.40
2006,02,02,10,48,9.10
2006,02,02,10,49,9.10
2006,02,02,10,50,9.90
2006,02,02,10,51,11.30
2006,02,02,10,52,9.80
2006,02,02,10,53,8.30
2006,02,02,10,55,6.20
2006,02,02,10,56,8.50
2006,02,02,10,57,8.10
2006,02,02,10,59,10.00
2006,02,02,11,00,8.90
2006,02,02,11,01,8.10
2006,02,02,11,02,14.20
2006,02,02,11,03,13.00
2006,02,02,11,04,9.80
2006,02,02,11,05,9.50
2006,02,02,11,06,9.90
2006,02,02,11,07,11.20
2006,02,02,11,08,5.20
2006,02,02,11,09,6.70
2006,02,02,11,10,8.90
2006,02,02,11,11,8.90
2006,02,02,11,12,8.90
2006,02,02,11,13,12.70
2006,02,02,11,14,13.90
2006,02,02,11,15,11.80
2006,02,02,11,16,12.80
2006,02,02,11,17,10.70
2006,02,02,11,18,5.50
2006,02,02,11,19,7.20
2006,02,02,11,20,8.10
2006,02,02,11,21,12.00
2006,02,02,11,22,10.20
2006,02,02,11,23,12.80
2006,02,02,11,24,9.50
2006,02,02,11,25,9.90
2006,02,02,11,26,8.60
2006,02,02,11,27,7.00
2006,02,02,11,28,7.00
2006,02,02,11,29,6.10
2006,02,02,11,30,15.20
2006,02,02,11,31,14.50
2006,02,02,11,32,7.80
2006,02,02,11,33,3.20
2006,02,02,11,34,8.90
2006,02,02,11,35,11.30
2006,02,02,11,36,7.90
2006,02,02,11,37,11.70
2006,02,02,11,38,11.70
2006,02,02,11,39,9.10
2006,02,02,11,40,15.50
2006,02,02,11,41,9.50
2006,02,02,11,42,5.70
2006,02,02,11,43,6.40
2006,02,02,11,44,6.90
2006,02,02,11,45,10.30
2006,02,02,11,46,6.70
2006,02,02,11,47,7.50
2006,02,02,11,48,11.20
2006,02,02,11,49,8.10
2006,02,02,11,50,10.50
2006,02,02,11,51,6.70
2006,02,02,11,52,6.40
2006,02,02,11,53,7.60
2006,02,02,11,54,4.70
2006,02,02,11,55,4.80
2006,02,02,11,56,6.80
2006,02,02,11,57,8.10
2006,02,02,11,58,8.00
2006,02,02,11,59,9.70
2006,02,02,12,00,9.80
2006,02,02,12,01,9.60
2006,02,02,12,02,10.10
2006,02,02,12,03,11.40
2006,02,02,12,04,10.10
2006,02,02,12,05,14.60
2006,02,02,12,06,12.60
2006,02,02,12,07,16.60
2006,02,02,12,08,14.70
2006,02,02,12,09,14.00
2006,02,02,12,10,11.80
2006,02,02,12,11,12.60
2006,02,02,12,12,13.00
2006,02,02,12,13,11.40
2006,02,02,12,14,10.90
2006,02,02,12,15,13.20
2006,02,02,12,16,12.90
2006,02,02,12,17,12.10
2006,02,02,12,18,13.70
2006,02,02,12,19,14.30
2006,02,02,12,20,10.70
2006,02,02,12,21,11.30
2006,02,02,12,22,12.70
2006,02,02,12,23,9.70
2006,02,02,12,24,12.30
2006,02,02,12,25,8.70
2006,02,02,12,26,9.80
2006,02,02,12,27,9.90
2006,02,02,12,28,10.00
2006,02,02,12,29,8.30
2006,02,02,12,30,7.90
2006,02,02,12,31,9.50
2006,02,02,12,32,10.90
2006,02,02,12,33,8.30
2006,02,02,12,34,10.40
2006,02,02,12,35,7.50
2006,02,02,12,36,5.80
2006,02,02,12,37,6.20
2006,02,02,12,38,11.10
2006,02,02,12,39,11.30
2006,02,02,12,40,15.30
2006,02,02,12,41,12.50
2006,02,02,12,42,10.50
2006,02,02,12,43,9.10
2006,02,02,12,44,11.40
2006,02,02,12,45,11.00
2006,02,02,12,46,10.10
2006,02,02,12,47,8.60
2006,02,02,12,48,10.60
2006,02,02,12,49,9.40
2006,02,02,12,50,9.60
2006,02,02,12,51,10.20
2006,02,02,12,52,15.40
2006,02,02,12,53,12.80
2006,02,02,12,54,9.10
2006,02,02,12,55,17.10
2006,02,02,12,56,13.80
2006,02,02,12,57,13.40
2006,02,02,12,58,9.90
2006,02,02,12,59,6.20
2006,02,02,13,00,8.50
2006,02,02,13,01,9.70
2006,02,02,13,02,9.10
2006,02,02,13,03,10.40
2006,02,02,13,04,10.40
2006,02,02,13,05,6.30
2006,02,02,13,06,6.40
2006,02,02,13,07,8.00
2006,02,02,13,08,7.20
2006,02,02,13,09,12.50
2006,02,02,13,10,15.20
2006,02,02,13,11,13.80
2006,02,02,13,12,10.10
2006,02,02,13,13,8.00
2006,02,02,13,14,9.40
2006,02,02,13,15,10.70
2006,02,02,13,16,14.10
2006,02,02,13,17,8.70
2006,02,02,13,18,7.90
2006,02,02,13,19,5.60
2006,02,02,13,20,12.60
2006,02,02,13,21,10.40
2006,02,02,13,22,9.10
2006,02,02,13,23,7.70
2006,02,02,13,24,7.30
2006,02,02,13,25,4.80
2006,02,02,13,26,6.70
2006,02,02,13,27,6.40
2006,02,02,13,28,5.90
2006,02,02,13,29,6.00
2006,02,02,13,30,7.40
2006,02,02,13,31,9.50
2006,02,02,13,32,9.20
2006,02,02,13,33,9.30
2006,02,02,13,34,12.00
2006,02,02,13,35,9.00
2006,02,02,13,36,8.40
2006,02,02,13,37,7.30
2006,02,02,13,38,6.70
2006,02,02,13,39,9.70
2006,02,02,13,40,7.90
2006,02,02,13,41,8.20
2006,02,02,13,42,8.40
2006,02,02,13,43,10.60
2006,02,02,13,44,10.90
2006,02,02,13,45,12.50
2006,02,02,13,46,12.10
2006,02,02,13,47,10.80
2006,02,02,13,48,8.30
2006,02,02,13,49,9.00
2006,02,02,13,50,10.50
2006,02,02,13,51,9.90
2006,02,02,13,52,12.20
2006,02,02,13,53,8.10
2006,02,02,13,54,7.50
2006,02,02,13,55,14.90
2006,02,02,13,56,10.70
2006,02,02,13,57,6.40
2006,02,02,13,58,4.90
2006,02,02,13,59,6.10
2006,02,02,14,00,6.50
2006,02,02,14,01,7.20
2006,02,02,14,02,7.70
2006,02,02,14,03,11.30
2006,02,02,14,04,9.00
2006,02,02,14,05,9.40
2006,02,02,14,06,11.90
2006,02,02,14,07,11.00
2006,02,02,14,08,8.00
2006,02,02,14,09,7.40
2006,02,02,14,10,13.00
2006,02,02,14,11,13.20
2006,02,02,14,12,13.00
2006,02,02,14,13,11.20
2006,02,02,14,14,8.90
2006,02,02,14,15,12.70
2006,02,02,14,16,9.90
2006,02,02,14,17,7.90
2006,02,02,14,18,8.40
2006,02,02,14,19,9.30
2006,02,02,14,20,10.50
2006,02,02,14,21,7.30
2006,02,02,14,22,9.30
2006,02,02,14,23,9.50
2006,02,02,14,24,9.70
2006,02,02,14,25,7.90
2006,02,02,14,26,9.00
2006,02,02,14,27,9.00
2006,02,02,14,28,13.80
2006,02,02,14,29,7.20
2006,02,02,14,30,7.20
2006,02,02,14,31,8.30
2006,02,02,14,32,7.90
2006,02,02,14,33,8.60
2006,02,02,14,34,5.40
2006,02,02,14,35,8.70
2006,02,02,14,36,8.60
2006,02,02,14,37,7.10
2006,02,02,14,38,6.80
2006,02,02,14,39,4.90
2006,02,02,14,40,5.10
2006,02,02,14,42,6.40
2006,02,02,14,43,6.00
2006,02,02,14,44,6.60
2006,02,02,14,45,8.10
2006,02,02,14,46,7.40
2006,02,02,14,47,8.00
2006,02,02,14,48,6.00
2006,02,02,14,49,3.20
2006,02,02,14,50,3.30
2006,02,02,14,51,4.30
2006,02,02,14,52,6.00
2006,02,02,14,53,4.40
2006,02,02,14,54,5.60
2006,02,02,14,55,6.80
2006,02,02,14,56,5.00
2006,02,02,14,57,4.50
2006,02,02,14,58,6.40
2006,02,02,14,59,7.30
2006,02,02,15,00,6.70
2006,02,02,15,01,3.90
2006,02,02,15,02,4.70
2006,02,02,15,03,4.70
2006,02,02,15,04,4.90
2006,02,02,15,05,7.00
2006,02,02,15,06,6.90
2006,02,02,15,07,5.30
2006,02,02,15,08,6.30
2006,02,02,15,09,6.40
2006,02,02,15,10,5.10
2006,02,02,15,11,5.30
2006,02,02,15,12,5.20
2006,02,02,15,13,7.00
2006,02,02,15,14,5.70
2006,02,02,15,15,4.10
2006,02,02,15,16,5.30
2006,02,02,15,17,6.20
2006,02,02,15,18,6.60
2006,02,02,15,19,4.00
2006,02,02,15,20,5.00
2006,02,02,15,21,6.50
2006,02,02,15,22,6.00
2006,02,02,15,23,9.40
2006,02,02,15,24,8.50
2006,02,02,15,25,6.90
2006,02,02,15,26,6.40
2006,02,02,15,27,9.50
2006,02,02,15,28,9.90
2006,02,02,15,29,8.40
2006,02,02,15,30,5.70
2006,02,02,15,31,5.10
2006,02,02,15,32,4.70
2006,02,02,15,33,7.10
2006,02,02,15,34,6.10
2006,02,02,15,35,9.60
2006,02,02,15,36,7.50
2006,02,02,15,37,9.40
2006,02,02,15,38,9.60
2006,02,02,15,39,6.50
2006,02,02,15,40,6.90
2006,02,02,15,41,8.60
2006,02,02,15,42,5.70
2006,02,02,15,43,6.50
2006,02,02,15,44,8.70
2006,02,02,15,45,7.60
2006,02,02,15,46,6.50
2006,02,02,15,47,7.30
2006,02,02,15,48,8.00
2006,02,02,15,49,6.10
2006,02,02,15,50,8.40
2006,02,02,15,51,8.50
2006,02,02,15,52,6.60
2006,02,02,15,53,7.70
2006,02,02,15,54,7.60
2006,02,02,15,55,9.50
2006,02,02,15,56,9.30
2006,02,02,15,57,7.30
2006,02,02,15,58,6.60
2006,02,02,15,59,8.20
2006,02,02,16,00,7.50
2006,02,02,16,01,9.40
2006,02,02,16,02,9.60
2006,02,02,16,03,10.10
2006,02,02,16,04,8.30
2006,02,02,16,05,10.10
2006,02,02,16,06,11.30
2006,02,02,16,07,11.60
2006,02,02,16,08,6.90
2006,02,02,16,09,7.70
2006,02,02,16,10,5.80
2006,02,02,16,11,5.20
2006,02,02,16,12,7.10
2006,02,02,16,13,11.00
2006,02,02,16,14,8.30
2006,02,02,16,15,8.60
2006,02,02,16,16,6.40
2006,02,02,16,17,8.00
2006,02,02,16,18,7.30
2006,02,02,16,19,8.10
2006,02,02,16,20,7.60
2006,02,02,16,21,6.10
2006,02,02,16,22,7.40
2006,02,02,16,23,6.50
2006,02,02,16,24,6.50
2006,02,02,16,25,7.20
2006,02,02,16,26,9.60
2006,02,02,16,27,7.90
2006,02,02,16,28,5.20
2006,02,02,16,29,5.60
2006,02,02,16,30,7.00
2006,02,02,16,31,7.90
2006,02,02,16,32,6.50
2006,02,02,16,33,6.60
2006,02,02,16,34,6.20
2006,02,02,16,35,6.20
2006,02,02,16,36,4.10
2006,02,02,16,37,5.00
2006,02,02,16,38,4.70
2006,02,02,16,39,3.80
2006,02,02,16,40,3.60
2006,02,02,16,41,8.60
2006,02,02,16,42,5.90
2006,02,02,16,43,5.70
2006,02,02,16,44,6.80
2006,02,02,16,45,4.90
2006,02,02,16,46,6.60
2006,02,02,16,47,6.90
2006,02,02,16,48,5.60
2006,02,02,16,49,5.60
2006,02,02,16,50,3.40
2006,02,02,16,51,3.20
2006,02,02,16,52,4.80
2006,02,02,16,53,5.00
2006,02,02,16,54,4.90
2006,02,02,16,55,5.10
2006,02,02,16,56,3.90
2006,02,02,16,57,4.90
2006,02,02,16,58,5.90
2006,02,02,16,59,6.60
2006,02,02,17,00,9.30
2006,02,02,17,01,7.80
2006,02,02,17,02,9.30
2006,02,02,17,03,6.70
2006,02,02,17,04,10.20
2006,02,02,17,05,6.70
2006,02,02,17,06,7.80
2006,02,02,17,07,5.30
2006,02,02,17,08,6.40
2006,02,02,17,09,6.60
2006,02,02,17,10,6.40
2006,02,02,17,11,5.80
2006,02,02,17,12,4.70
2006,02,02,17,13,5.90
2006,02,02,17,14,5.70
2006,02,02,17,15,5.90
2006,02,02,17,16,6.80
2006,02,02,17,17,7.70
2006,02,02,17,18,5.30
2006,02,02,17,19,8.20
2006,02,02,17,20,5.50
2006,02,02,17,21,3.90
2006,02,02,17,22,4.80
2006,02,02,17,23,4.80
2006,02,02,17,24,4.70
2006,02,02,17,25,4.60
2006,02,02,17,26,6.70
2006,02,02,17,27,5.10
2006,02,02,17,28,4.30
2006,02,02,17,29,5.30
2006,02,02,17,30,6.00
2006,02,02,17,31,3.90
2006,02,02,17,32,5.00
2006,02,02,17,33,3.10
2006,02,02,17,34,5.80
2006,02,02,17,35,4.90
2006,02,02,17,36,4.60
2006,02,02,17,37,4.80
2006,02,02,17,38,6.20
2006,02,02,17,39,5.10
2006,02,02,17,40,5.40
2006,02,02,17,41,7.20
2006,02,02,17,42,6.40
2006,02,02,17,43,3.60
2006,02,02,17,44,6.90
2006,02,02,17,45,7.50
2006,02,02,17,46,6.40
2006,02,02,17,47,6.90
2006,02,02,17,48,9.50
2006,02,02,17,49,6.70
2006,02,02,17,50,8.70
2006,02,02,17,51,7.70
2006,02,02,17,52,5.00
2006,02,02,17,53,4.90
2006,02,02,17,54,6.10
2006,02,02,17,55,5.60
2006,02,02,17,56,4.90
2006,02,02,17,57,6.50
2006,02,02,17,58,11.10
2006,02,02,17,59,8.90
2006,02,02,18,00,8.60